Phenix City, Alabama, United States (36867)
Lat: 32.47N, Lon: 85W
Wx Zone: ALZ048
Local Info
Past Weather Observations for Yesterday

NOTE: This archive is for the closest National Weather Service station to Phenix City. Information may differ from the station used for current weather conditions.

Click here for Long-term Archive

Time Weather Temperature Dewpoint Humidity Pressure Winds Precip Visibility
23:51
Clear
72°F / 22°C 68°F / 20°C 88% 30.04 in
(1017 mb)
Calm - 10SM
22:51
Partly Cloudy
72°F / 22°C 66°F / 19°C 83% 30.04 in
(1017 mb)
N 5.8 mph
(N 9 kph)
0.25 in
(6.35 mm)
10SM
21:56
Mostly Cloudy
Thunder Storms
70°F / 21°C 64°F / 18°C 83% 30.06 in
(1018 mb)
WNW 12.7 mph
(WNW 20 kph)
0.13 in
(3.30 mm)
1SM
21:51
Mostly Cloudy
Thunder Storms
70°F / 21°C 66°F / 19°C 88% 30.09 in
(1019 mb)
WNW 24.2 mph
(WNW 39 kph)
0.25 in
(6.35 mm)
3/4SM
21:45
Partly Cloudy
Thunder Storms
73°F / 23°C 66°F / 19°C 78% 30.06 in
(1018 mb)
NW 31.1 mph
(NW 50 kph)
0.01 in
(0.25 mm)
1 3/4SM
21:41
Partly Cloudy
Thunder Storms
81°F / 27°C 68°F / 20°C 66% 30.06 in
(1018 mb)
WNW 31.1 mph
(WNW 50 kph)
- 10SM
20:51
Clear
81°F / 27°C 70°F / 21°C 70% 30.01 in
(1016 mb)
SSW 4.6 mph
(SSW 7 kph)
- 10SM
19:51
Clear
82°F / 28°C 68°F / 20°C 62% 30.01 in
(1016 mb)
SSW 3.5 mph
(SSW 6 kph)
- 10SM
18:51
Clear
84°F / 29°C 66°F / 19°C 55% 29.98 in
(1015 mb)
NW 4.6 mph
(NW 7 kph)
- 10SM
17:51
Clear
88°F / 31°C 66°F / 19°C 49% 30.01 in
(1016 mb)
NW 9.2 mph
(NW 15 kph)
0.00 in
(0.00 mm)
10SM
16:51
Clear
88°F / 31°C 66°F / 19°C 49% 30.01 in
(1016 mb)
W 8.1 mph
(W 13 kph)
- 10SM
15:51
Partly Cloudy
88°F / 31°C 68°F / 20°C 52% 30.01 in
(1016 mb)
W 11.5 mph
(W 19 kph)
- 10SM
14:51
Partly Cloudy
90°F / 32°C 68°F / 20°C 49% 30.04 in
(1017 mb)
NW 11.5 mph
(NW 19 kph)
- 10SM
13:51
Clear
90°F / 32°C 64°F / 18°C 43% 30.04 in
(1017 mb)
NW 15 mph
(NW 24 kph)
- 10SM
12:51
Clear
90°F / 32°C 66°F / 19°C 46% 30.04 in
(1017 mb)
NW 16.1 mph
(NW 26 kph)
- 10SM
11:51
Clear
86°F / 30°C 66°F / 19°C 52% 30.04 in
(1017 mb)
WNW 11.5 mph
(WNW 19 kph)
- 10SM
10:51
Clear
86°F / 30°C 70°F / 21°C 59% 30.04 in
(1017 mb)
W 12.7 mph
(W 20 kph)
- 10SM
09:51
Partly Cloudy
84°F / 29°C 72°F / 22°C 66% 30.04 in
(1017 mb)
W 12.7 mph
(W 20 kph)
- 10SM
09:49
Mostly Cloudy
82°F / 28°C 72°F / 22°C 70% 30.04 in
(1017 mb)
W 12.7 mph
(W 20 kph)
- 10SM
09:14
Partly Cloudy
81°F / 27°C 72°F / 22°C 74% 30.04 in
(1017 mb)
W 13.8 mph
(W 22 kph)
- 10SM
08:51
Mostly Cloudy
81°F / 27°C 72°F / 22°C 74% 30.04 in
(1017 mb)
W 18.4 mph
(W 30 kph)
- 10SM
07:51
Mostly Cloudy
79°F / 26°C 72°F / 22°C 79% 30.04 in
(1017 mb)
SSW 8.1 mph
(SSW 13 kph)
- 10SM
06:51
Overcast
75°F / 24°C 72°F / 22°C 89% 30.04 in
(1017 mb)
SSW 6.9 mph
(SSW 11 kph)
- 10SM
06:26
Mostly Cloudy
75°F / 24°C 72°F / 22°C 89% 30.04 in
(1017 mb)
SSW 6.9 mph
(SSW 11 kph)
- 10SM
05:51
Clear
75°F / 24°C 72°F / 22°C 89% 30.04 in
(1017 mb)
SSW 5.8 mph
(SSW 9 kph)
- 10SM
04:51
Partly Cloudy
75°F / 24°C 72°F / 22°C 89% 30.01 in
(1016 mb)
SSW 5.8 mph
(SSW 9 kph)
- 10SM
03:51
Clear
75°F / 24°C 73°F / 23°C 94% 30.01 in
(1016 mb)
SW 4.6 mph
(SW 7 kph)
- 10SM
02:51
Clear
75°F / 24°C 73°F / 23°C 94% 30.01 in
(1016 mb)
SW 5.8 mph
(SW 9 kph)
- 10SM
01:51
Partly Cloudy
75°F / 24°C 73°F / 23°C 94% 30.01 in
(1016 mb)
SW 6.9 mph
(SW 11 kph)
- 10SM
01:29
Partly Cloudy
75°F / 24°C 73°F / 23°C 94% 30.01 in
(1016 mb)
SW 6.9 mph
(SW 11 kph)
- 10SM
00:51
Overcast
75°F / 24°C 73°F / 23°C 94% 30.01 in
(1016 mb)
SSW 8.1 mph
(SSW 13 kph)
- 10SM
Time Weather Temperature Dewpoint Humidity Pressure Winds Precip Visibility


Weather for websites

WeatherForYou.com, LLC is not responsible for any damages or problems caused by this service. Current weather conditions are obtained from the closest station including government and personal stations which may have varying degrees of accuracy. Weather forecasts are derived from the NOAA NDFD. Like all things, this site belongs to Jesus Christ... He just trusts us to maintain it. If you have any questions or comments email webmaster@weatherforyou.com

Copyright © 2015, WeatherForYou.com LLC. All rights reserved.